F2092 Weather Reports


time (UTC)temp
C
wind
direction
speed
KPH
gust
KPH
rain 1hr
cm
rain 24hr
cm
rain mn
cm
humidity
%
barometer
mb
20260504214503 25 234 6.4 14.5 0.00 0.00 0.00 38 1009.7
20260504213603 25 225 6.4 19.3 0.00 0.00 0.00 37 1009.9
20260504212703 25 235 8.0 17.7 0.00 0.00 0.00 38 1009.9
20260504211803 25 233 6.4 17.7 0.00 0.00 0.00 37 1009.8
20260504210903 26 230 4.8 19.3 0.00 0.00 0.00 37 1009.9
20260504210003 25 237 6.4 19.3 0.00 0.00 0.00 38 1009.8
20260504205403 25 245 4.8 19.3 0.00 0.00 0.00 37 1009.8
20260504204503 25 236 6.4 17.7 0.00 0.00 0.00 39 1009.9
20260504203603 25 235 8.0 19.3 0.00 0.00 0.00 39 1009.8
20260504202703 25 232 8.0 17.7 0.00 0.00 0.00 40 1009.7
20260504201803 24 234 8.0 22.5 0.00 0.00 0.00 39 1010.0
20260504201112 24 227 8.0 19.3 0.00 0.00 0.00 38 1009.9
20260504200003 24 237 8.0 19.3 0.00 0.00 0.00 41 1010.0
20260504195403 24 233 8.0 19.3 0.00 0.00 0.00 39 1010.1
20260504194503 23 238 6.4 20.9 0.00 0.00 0.00 40 1010.3
20260504193603 24 233 4.8 19.3 0.00 0.00 0.00 40 1010.3
20260504192703 23 237 6.4 19.3 0.00 0.00 0.00 42 1010.4
20260504191803 23 233 6.4 20.9 0.00 0.00 0.00 42 1010.4
20260504190903 23 237 6.4 16.1 0.00 0.00 0.00 42 1010.7
20260504190003 23 227 6.4 27.4 0.00 0.00 0.00 43 1010.9
20260504185403 23 227 6.4 17.7 0.00 0.00 0.00 43 1010.9
20260504184503 23 236 6.4 19.3 0.00 0.00 0.00 43 1011.2
20260504183816 23 239 6.4 17.7 0.00 0.00 0.00 45 1011.0
20260504182703 23 243 6.4 22.5 0.00 0.00 0.00 41 1011.2
20260504181803 23 244 6.4 19.3 0.00 0.00 0.00 43 1011.3
20260504180903 22 232 8.0 22.5 0.00 0.00 0.00 43 1011.3
20260504180003 23 246 3.2 17.7 0.00 0.00 0.00 42 1011.4
20260504175612 23 254 4.8 22.5 0.00 0.00 0.00 45 1011.3
20260504174503 22 242 6.4 20.9 0.00 0.00 0.00 44 1011.5
20260504173603 22 241 6.4 19.3 0.00 0.00 0.00 43 1011.8
20260504172703 22 241 6.4 17.7 0.00 0.00 0.00 45 1011.6
20260504171803 22 244 9.7 25.7 0.00 0.00 0.00 44 1011.7
20260504170903 22 242 8.0 20.9 0.00 0.00 0.00 45 1011.9
20260504170216 21 234 9.7 20.9 0.00 0.00 0.00 42 1012.2
20260504150903 20 224 6.4 14.5 0.00 0.00 0.00 49 1013.3
20260504140903 18 238 6.4 29.0 0.00 0.00 0.00 54 1013.8
20260504081803 10 232 3.2 11.3 0.00 0.00 0.00 63 1014.3
20260504080903 10 229 3.2 11.3 0.00 0.00 0.00 62 1014.4
20260504050003 10 240 3.2 11.3 0.00 0.00 0.00 59 1013.7
20260504045403 10 230 3.2 11.3 0.00 0.00 0.00 59 1013.7
20260504044503 10 233 3.2 9.7 0.00 0.00 0.00 59 1013.7
20260504043603 10 226 3.2 9.7 0.00 0.00 0.00 60 1013.7
20260504042703 10 232 1.6 11.3 0.00 0.00 0.00 60 1013.6
20260504041803 10 240 3.2 9.7 0.00 0.00 0.00 59 1013.6
20260504040903 10 235 3.2 11.3 0.00 0.00 0.00 58 1013.5
20260504040004 11 233 3.2 6.4 0.00 0.00 0.00 58 1013.3
20260504035403 11 233 3.2 8.0 0.00 0.00 0.00 58 1013.3
20260504034713 11 231 3.2 8.0 0.00 0.00 0.00 58 1013.3
20260504033603 11 233 3.2 8.0 0.00 0.00 0.00 57 1013.3
20260504032703 11 232 3.2 12.9 0.00 0.00 0.00 58 1013.1
20260504031803 10 229 3.2 8.0 0.00 0.00 0.00 58 1013.1
20260504030903 10 239 1.6 8.0 0.00 0.00 0.00 59 1013.1
20260504030003 10 232 1.6 4.8 0.00 0.00 0.00 61 1013.3
20260504025403 10 235 1.6 6.4 0.00 0.00 0.00 61 1013.1
20260504024503 9 221 0.0 3.2 0.00 0.00 0.00 65 1013.2
20260504023603 9 247 0.0 3.2 0.00 0.00 0.00 63 1013.3
20260504022703 9 238 0.0 3.2 0.00 0.00 0.00 64 1013.1
20260504021803 9 221 0.0 3.2 0.00 0.00 0.00 66 1013.1
20260504020903 9 226 0.0 1.6 0.00 0.00 0.00 64 1013.2
20260504020003 8 218 0.0 1.6 0.00 0.00 0.00 68 1013.1
20260504015403 8 208 0.0 1.6 0.00 0.00 0.00 68 1013.0
20260504014715 8 0 0.0 0.0 0.00 0.00 0.00 68 1013.0
20260504013603 9 0 0.0 0.0 0.00 0.00 0.00 68 1013.0
20260504012703 10 0 0.0 0.0 0.00 0.00 0.00 64 1012.8
20260504012017 10 0 0.0 0.0 0.00 0.00 0.00 63 1012.7
20260504010903 10 204 0.0 1.6 0.00 0.00 0.00 59 1012.5
20260504010003 10 233 0.0 3.2 0.00 0.00 0.00 59 1012.5
20260504005403 11 247 0.0 1.6 0.00 0.00 0.00 59 1012.4
20260504004503 11 227 1.6 3.2 0.00 0.00 0.00 58 1012.3
20260504003603 11 211 0.0 3.2 0.00 0.00 0.00 54 1012.1
20260504002703 12 240 0.0 3.2 0.00 0.00 0.00 52 1012.0
20260504001803 12 256 0.0 1.6 0.00 0.00 0.00 49 1011.9
20260504000903 13 248 0.0 4.8 0.00 0.00 0.00 46 1011.8
20260504000003 13 236 1.6 4.8 0.00 0.00 0.00 44 1011.6
20260503235403 13 225 1.6 8.0 0.00 0.00 0.00 44 1011.6
20260503234503 13 231 1.6 6.4 0.00 0.00 0.00 44 1011.7
20260503233813 14 234 1.6 6.4 0.00 0.00 0.00 43 1011.4
20260503232703 14 229 3.2 9.7 0.00 0.00 0.00 42 1011.4
20260503231803 15 243 3.2 9.7 0.00 0.00 0.00 42 1011.4
20260503230903 15 228 3.2 9.7 0.00 0.00 0.00 41 1011.3
20260503230003 15 246 3.2 17.7 0.00 0.00 0.00 39 1011.2
20260503225403 16 237 3.2 9.7 0.00 0.00 0.00 40 1011.3
20260503224503 16 232 3.2 14.5 0.00 0.00 0.00 39 1011.1
20260503223603 16 233 4.8 14.5 0.00 0.00 0.00 38 1011.1
20260503222703 16 247 3.2 22.5 0.00 0.00 0.00 37 1011.1
20260503221803 17 238 3.2 12.9 0.00 0.00 0.00 38 1011.1
20260503220903 17 237 4.8 14.5 0.00 0.00 0.00 38 1011.0
20260503220213 17 251 4.8 14.5 0.00 0.00 0.00 37 1011.1
20260503215403 18 250 4.8 11.3 0.00 0.00 0.00 38 1011.2